EW1549 Weather Reports


Display with metric or nautical units.
time (UTC)temp
F
wind
direction
speed
MPH
gust
MPH
rain 1hr
in
rain 24hr
in
rain mn
in
humidity
%
barometer
mb
20260903053029 0 94 0.0 0.0 0.00 0.00 0.00 1017.4
20260903051524 0 94 1.0 4.0 0.00 0.00 0.00 1017.5
20260903050020 0 200 0.0 2.0 0.00 0.00 0.00 1017.6
20260903044515 0 200 1.0 7.0 0.00 0.00 0.00 1017.5
20260903043022 0 232 3.0 7.0 0.00 0.00 0.00 1017.6
20260903041507 0 212 6.0 13.0 0.00 0.00 0.00 1017.3
20260903040003 0 191 10.0 14.0 0.00 0.00 0.00 1017.1
20260903034558 0 222 8.0 12.0 0.00 0.00 0.00 1017.4
20260903033051 0 225 3.0 6.0 0.00 0.00 0.00 1017.1
20260903031547 0 252 4.0 7.0 0.00 0.00 0.00 1017.1
20260903030043 0 215 5.0 9.0 0.00 0.00 0.00 1017.1
20260903024529 0 210 7.0 10.0 0.00 0.00 0.00 1017.1
20260903023042 0 219 5.0 6.0 0.00 0.00 0.00 1017.1
20260903021521 0 231 0.0 0.0 0.00 0.00 0.00 1016.9
20260903020015 0 231 0.0 0.0 0.00 0.00 0.00 1017.0
20260903014510 0 231 0.0 6.0 0.00 0.00 0.00 1017.1
20260903013006 0 232 3.0 6.0 0.00 0.00 0.00 1017.3
20260903011501 0 238 3.0 5.0 0.00 0.00 0.00 1017.3
20260903010057 0 237 2.0 6.0 0.00 0.00 0.00 1017.5
20260903004554 0 223 4.0 8.0 0.00 0.00 0.00 1017.6
20260903003048 0 235 3.0 5.0 0.00 0.00 0.00 1017.8
20260903001549 0 236 4.0 7.0 0.00 0.00 0.00 1017.6
20260903000040 0 246 4.0 6.0 0.00 0.00 0.00 1017.5
20260902234550 0 241 3.0 5.0 0.00 0.00 0.00 1017.4
20260902233032 0 241 0.0 0.0 0.00 0.00 0.00 1017.4
20260902231612 0 241 0.0 4.0 0.00 0.00 0.00 1017.4
20260902230108 0 241 2.0 5.0 0.00 0.00 0.00 1017.4
20260902224554 0 266 1.0 5.0 0.00 0.00 0.00 1017.3
20260902223054 0 36 0.0 0.0 0.00 0.00 0.00 1017.2
20260902221553 0 53 0.0 6.0 0.00 0.00 0.00 1017.4
20260902220101 0 65 3.0 9.0 0.00 0.00 0.00 1017.3
20260902214552 0 67 0.0 4.0 0.00 0.00 0.00 1017.4
20260902213052 0 251 0.0 0.0 0.00 0.00 0.00 1017.4
20260902211554 0 269 0.0 0.0 0.00 0.00 0.00 1017.5
20260902210055 0 275 2.0 5.0 0.00 0.00 0.00 1017.4
20260902204553 0 219 0.0 4.0 0.00 0.00 0.00 1017.2
20260902203046 0 41 3.0 9.0 0.00 0.00 0.00 1017.1
20260902201542 0 36 0.0 12.0 0.00 0.00 0.00 1016.8
20260902200036 0 51 8.0 12.0 0.00 0.00 0.00 1016.6
20260902194533 0 41 6.0 12.0 0.00 0.00 0.00 1016.6
20260902193028 0 69 4.0 13.0 0.00 0.00 0.00 1016.6
20260902191522 0 14 5.0 15.0 0.00 0.00 0.00 1016.8
20260902190019 0 50 9.0 15.0 0.00 0.00 0.00 1016.7
20260902184514 0 36 6.0 16.0 0.00 0.00 0.00 1016.6
20260902183010 0 55 8.0 13.0 0.00 0.00 0.00 1016.7
20260902181505 0 56 4.0 12.0 0.00 0.00 0.00 1016.6
20260902180000 0 58 9.0 14.0 0.00 0.00 0.00 1016.8
20260902174604 0 56 11.0 19.0 0.00 0.00 0.00 1016.9
20260902173053 0 36 10.0 19.0 0.00 0.00 0.00 1017.1
20260902171558 0 57 14.0 20.0 0.00 0.00 0.00 1017.2
20260902170043 0 36 9.0 21.0 0.00 0.00 0.00 1017.3
20260902164539 0 36 16.0 22.0 0.00 0.00 0.00 1017.3
20260902163035 0 41 12.0 23.0 0.00 0.00 0.00 1017.3
20260902161540 0 50 15.0 26.0 0.00 0.00 0.00 1017.1
20260902160028 0 36 11.0 23.0 0.00 0.00 0.00 1017.0
20260902154530 0 62 11.0 23.0 0.00 0.00 0.00 1016.9
20260902153018 0 25 14.0 22.0 0.00 0.00 0.00 1016.9
20260902151514 0 36 8.0 24.0 0.00 0.00 0.00 1017.3
20260902150009 0 87 13.0 26.0 0.00 0.00 0.00 1017.3
20260902144511 0 89 12.0 22.0 0.00 0.00 0.00 1017.6
20260902143008 0 60 13.0 22.0 0.00 0.00 0.00 1017.4
20260902141516 0 30 9.0 21.0 0.00 0.00 0.00 1017.5
20260902140007 0 92 11.0 19.0 0.00 0.00 0.00 1017.5
20260902134506 0 26 6.0 19.0 0.00 0.00 0.00 1017.5
20260902133042 0 68 8.0 22.0 0.00 0.00 0.00 1017.6
20260902131541 0 73 12.0 21.0 0.00 0.00 0.00 1017.6
20260902130042 0 41 8.0 17.0 0.00 0.00 0.00 1017.8
20260902124540 0 29 10.0 23.0 0.00 0.00 0.00 1018.1
20260902123043 0 52 12.0 21.0 0.00 0.00 0.00 1018.1
20260902121538 0 41 13.0 23.0 0.00 0.00 0.00 1018.3
20260902120035 0 28 12.0 20.0 0.00 0.00 0.00 1018.5
20260902114602 0 355 15.0 23.0 0.00 0.00 0.00 1018.5
20260902113027 0 46 7.0 19.0 0.00 0.00 0.00 1018.7
20260902111522 0 29 9.0 18.0 0.00 0.00 0.00 1018.7
20260902110025 0 20 10.0 18.0 0.00 0.00 0.00 1018.7
20260902104522 0 1 10.0 19.0 0.00 0.00 0.00 1018.7
20260902103017 0 23 9.0 18.0 0.00 0.00 0.00 1018.5
20260902101506 0 41 3.0 15.0 0.00 0.00 0.00 1018.6
20260902100012 0 8 0.0 6.0 0.00 0.00 0.00 1018.6
20260902094505 0 3 7.0 14.0 0.00 0.00 0.00 1018.6
20260902093001 0 339 6.0 11.0 0.00 0.00 0.00 1018.6
20260902091558 0 356 3.0 13.0 0.00 0.00 0.00 1018.5
20260902090059 0 28 0.0 8.0 0.00 0.00 0.00 1018.5
20260902084547 0 238 4.0 8.0 0.00 0.00 0.00 1018.2
20260902083045 0 243 2.0 7.0 0.00 0.00 0.00 1018.1
20260902081541 0 212 1.0 8.0 0.00 0.00 0.00 1017.8
20260902080033 0 248 5.0 16.0 0.00 0.00 0.00 1017.6
20260902074539 0 229 4.0 8.0 0.00 0.00 0.00 1017.6
20260902073025 0 247 1.0 5.0 0.00 0.00 0.00 1017.5
20260902071521 0 252 0.0 0.0 0.00 0.00 0.00 1017.4
20260902070017 0 260 3.0 11.0 0.00 0.00 0.00 1017.3
20260902064512 0 75 6.0 21.0 0.00 0.00 0.00 1017.4
20260902063016 0 303 10.0 19.0 0.00 0.00 0.00 1017.3
20260902061521 0 287 4.0 16.0 0.00 0.00 0.00 1017.2
20260902060111 0 273 3.0 10.0 0.00 0.00 0.00 1017.1
20260902054559 0 325 5.0 9.0 0.00 0.00 0.00 1017.0